Tracking 29892 objects as of 21-Nov-2024
HD Live streaming from Space Station
objects crossing your sky now

DELTA 1 DEB

Track DELTA 1 DEB now!
10-day predictions


NORAD ID: 7091
Int'l Code: 1973-086CK
Perigee: 1,482.5 km
Apogee: 1,926.9 km
Inclination: 102.1 °
Period: 120.4 minutes
Semi major axis: 8075 km
RCS: 0.182 m2 (medium)
Launch date: November 6, 1973
Source: United States (US)
Launch site: AIR FORCE WESTERN TEST RANGE (AFWTR)

Note: This is SATELLITE DEBRIS
Your satellite tracking list
Your tracking list is empty




NASA's NSSDC Master Catalog

Two Line Element Set (TLE):
1 07091U 73086CK  24325.29764187  .00000239  00000-0  32327-2 0  9994
2 07091 102.0753 118.8370 0275138  40.2563  74.7606 11.96280026227490
Source of the keplerian elements: AFSPC